Total_Precipitation_Accumulation
0.16 0.23 0.30 0.32 0.27 0.21 0.18 0.21 0.34 0.33 0.38 0.48 0.59 0.64 0.79 0.85 0.78 0.73 0.69 0.67 0.68 0.75 0.79 0.84 0.89 0.90 0.98 0.94 1.10 1.11 1.17 1.27 1.38 1.35 1.35 1.34 1.29 1.26 1.32 1.40 1.34 1.49 1.65 1.74
0.15 0.18 0.22 0.26 0.26 0.18 0.14 0.12 0.15 0.28 0.49 0.53 0.56 0.61 0.73 0.76 0.74 0.72 0.79 0.84 0.85 0.86 0.92 0.85 0.79 0.74 0.69 0.74 0.87 0.96 1.07 1.05 1.14 1.24 1.17 1.13 1.14 1.12 1.15 1.24 1.33 1.47 1.52 1.57
0.25 0.21 0.27 0.32 0.26 0.19 0.14 0.13 0.14 0.32 0.59 0.60 0.61 0.64 0.75 0.82 0.83 0.74 0.74 0.77 0.84 0.85 0.85 0.72 0.66 0.65 0.66 0.70 0.76 0.79 0.88 1.02 1.13 1.22 1.17 1.10 1.15 1.25 1.24 1.35 1.41 1.41 1.36 1.39
0.37 0.44 0.58 0.39 0.25 0.21 0.22 0.21 0.22 0.28 0.38 0.46 0.61 0.62 0.60 0.67 0.79 0.82 0.84 0.87 0.85 0.80 0.75 0.71 0.68 0.69 0.70 0.69 0.71 0.76 0.78 0.87 0.99 1.09 1.08 1.07 1.07 1.14 1.25 1.41 1.49 1.44 1.31 1.31
0.49 0.59 0.51 0.43 0.37 0.34 0.38 0.38 0.35 0.44 0.42 0.48 0.54 0.58 0.67 0.58 0.62 0.66 0.82 0.85 0.85 0.81 0.86 0.87 0.83 0.87 0.90 0.85 0.84 0.90 0.96 1.01 0.98 1.06 1.14 1.18 1.20 1.24 1.34 1.44 1.49 1.52 1.41 1.34
0.65 0.79 0.79 0.67 0.56 0.49 0.51 0.83 0.64 0.60 0.60 0.68 0.71 0.81 0.94 0.71 0.62 0.70 0.81 0.81 0.86 0.78 0.75 0.85 0.88 1.04 1.11 1.10 1.08 1.13 1.22 1.32 1.31 1.36 1.41 1.40 1.50 1.62 1.68 1.70 1.64 1.67 1.59 1.51
0.84 0.96 0.98 0.77 0.65 0.60 0.99 1.19 0.79 0.72 0.77 0.75 0.78 0.89 0.89 0.82 0.80 0.85 0.73 0.71 0.76 0.85 0.82 0.85 0.96 1.13 1.31 1.34 1.28 1.34 1.42 1.52 1.63 1.73 1.87 1.98 2.08 2.03 1.99 2.01 2.01 1.87 1.74 1.71
1.18 1.35 1.28 0.82 0.77 1.09 1.29 0.98 1.01 0.91 0.84 0.82 0.77 0.84 0.90 0.89 0.84 0.73 0.71 0.72 0.77 0.89 0.88 0.91 1.04 1.20 1.35 1.41 1.45 1.58 1.66 1.82 1.95 2.14 2.22 2.31 2.61 2.62 2.65 2.61 2.34 2.11 2.05 1.93
1.29 1.39 1.14 0.99 1.15 1.22 1.18 1.14 1.19 1.23 1.05 0.94 0.85 0.87 0.91 0.82 0.72 0.66 0.68 0.70 0.76 0.91 1.01 1.03 1.10 1.30 1.53 1.56 1.62 1.74 1.87 2.07 2.21 2.30 2.44 2.58 2.71 2.68 2.67 2.60 2.35 2.16 2.14 2.06
1.38 1.50 1.30 1.22 1.21 1.25 1.24 1.18 1.18 1.25 1.37 1.35 1.10 0.94 0.96 0.93 0.83 0.80 0.85 0.82 0.83 0.93 1.08 1.26 1.34 1.46 1.70 1.73 1.82 1.92 2.00 2.11 2.21 2.31 2.42 2.59 2.74 2.65 2.55 2.43 2.32 2.23 2.21 2.20
1.72 1.69 1.57 1.45 1.48 1.57 1.47 1.35 1.37 1.37 1.42 1.46 1.17 0.94 0.90 0.97 0.94 0.92 1.01 1.04 1.02 1.05 1.17 1.37 1.54 1.66 1.72 1.77 1.91 2.05 2.06 2.13 2.23 2.26 2.28 2.39 2.46 2.54 2.43 2.34 2.28 2.27 2.29 2.33
1.89 1.71 1.83 1.70 1.43 1.53 1.66 1.52 1.53 1.48 1.39 1.23 1.11 1.05 1.04 1.02 1.00 0.99 1.09 1.12 1.13 1.14 1.21 1.37 1.53 1.73 1.84 1.93 2.05 2.17 2.18 2.07 2.10 2.16 2.21 2.24 2.22 2.09 2.02 1.95 1.88 1.82 1.88 1.93
1.58 1.45 1.57 1.59 1.50 1.55 1.75 1.65 1.44 1.37 1.35 1.32 1.22 1.08 1.04 1.00 0.95 0.98 1.04 1.04 1.09 1.16 1.20 1.30 1.43 1.64 1.84 2.05 2.24 2.37 2.37 2.32 2.26 2.31 2.38 2.37 2.34 2.24 2.12 1.97 1.77 1.61 1.52 1.49
1.51 1.52 1.58 1.63 1.69 1.62 1.67 1.60 1.40 1.27 1.24 1.28 1.28 1.16 1.08 1.03 1.01 1.05 1.15 1.12 1.06 1.13 1.25 1.30 1.37 1.54 1.73 1.92 2.14 2.28 2.32 2.40 2.37 2.33 2.36 2.33 2.29 2.28 2.23 2.09 1.96 1.75 1.51 1.37
1.63 1.70 1.77 1.78 1.77 1.70 1.68 1.56 1.57 1.39 1.23 1.20 1.26 1.25 1.18 1.12 1.12 1.09 1.08 1.01 0.97 1.02 1.14 1.29 1.40 1.46 1.58 1.66 1.76 1.89 1.99 2.09 2.15 2.13 2.10 2.13 2.12 2.08 2.06 2.01 1.90 1.74 1.51 1.39
1.61 1.72 1.75 1.77 1.81 1.76 1.71 1.66 1.60 1.43 1.25 1.23 1.26 1.17 1.16 1.15 1.10 1.02 0.98 0.99 1.04 1.07 1.12 1.30 1.37 1.45 1.62 1.72 1.78 1.87 1.95 2.02 2.04 1.98 1.85 1.81 1.81 1.82 1.77 1.77 1.74 1.63 1.50 1.36
1.64 1.73 1.75 1.80 1.71 1.66 1.74 1.77 1.62 1.43 1.29 1.21 1.21 1.12 1.03 0.97 0.94 0.90 0.90 0.91 0.93 1.00 1.11 1.25 1.30 1.30 1.48 1.74 1.88 1.88 1.83 1.79 1.80 1.78 1.71 1.60 1.59 1.65 1.68 1.69 1.64 1.55 1.43 1.30
1.58 1.54 1.51 1.60 1.63 1.60 1.57 1.57 1.62 1.52 1.35 1.23 1.14 1.09 1.03 0.97 0.90 0.86 0.83 0.84 0.87 0.88 0.91 1.01 1.12 1.19 1.28 1.47 1.66 1.74 1.73 1.64 1.55 1.51 1.49 1.41 1.34 1.38 1.45 1.46 1.37 1.28 1.20 1.08
1.36 1.31 1.29 1.33 1.44 1.48 1.46 1.41 1.46 1.47 1.34 1.21 1.17 1.17 1.09 1.04 0.95 0.87 0.81 0.86 0.97 1.04 0.96 0.94 1.10 1.12 1.20 1.33 1.47 1.48 1.54 1.56 1.48 1.30 1.26 1.33 1.25 1.22 1.17 1.13 1.08 1.03 0.96 0.90
1.30 1.22 1.25 1.37 1.45 1.52 1.56 1.45 1.36 1.37 1.40 1.29 1.19 1.19 1.14 1.11 1.06 0.99 0.94 0.97 1.07 1.16 1.15 1.08 0.99 0.96 1.09 1.33 1.44 1.36 1.36 1.39 1.34 1.24 1.19 1.19 1.15 1.11 1.01 0.98 0.95 0.94 0.93 0.90
1.36 1.33 1.35 1.36 1.37 1.44 1.50 1.41 1.27 1.27 1.24 1.21 1.14 1.09 1.10 1.09 1.07 1.08 1.13 1.14 1.05 1.03 1.02 1.04 0.95 0.91 0.93 1.14 1.24 1.22 1.19 1.17 1.18 1.13 1.11 1.12 1.11 1.07 1.00 0.99 0.96 0.92 0.85 0.81
1.35 1.34 1.30 1.24 1.17 1.21 1.25 1.22 1.06 0.99 0.97 0.98 0.99 0.97 1.02 1.02 1.03 1.03 1.01 1.06 1.09 1.10 0.97 0.93 0.90 0.88 0.84 0.90 0.96 1.07 1.13 1.04 0.99 0.95 0.95 0.96 1.00 0.99 0.92 0.88 0.83 0.74 0.68 0.66
1.16 1.11 1.09 1.04 0.98 0.98 0.98 0.95 0.89 0.88 0.89 0.92 0.96 1.03 1.11 1.06 1.01 1.10 1.04 0.91 0.95 0.93 0.85 0.84 0.82 0.77 0.70 0.70 0.81 0.90 0.99 0.98 0.96 0.88 0.83 0.82 0.79 0.77 0.73 0.68 0.62 0.59 0.60 0.59
0.90 0.92 0.94 0.84 0.79 0.85 0.92 0.91 0.86 0.83 0.80 0.80 0.82 0.92 1.07 1.15 1.07 1.00 0.94 0.90 0.84 0.74 0.65 0.67 0.60 0.55 0.56 0.56 0.67 0.75 0.84 0.87 0.87 0.80 0.74 0.70 0.64 0.63 0.67 0.66 0.59 0.55 0.54 0.53
0.79 0.77 0.84 0.84 0.81 0.89 0.93 0.88 0.82 0.77 0.78 0.78 0.75 0.83 1.00 1.12 1.18 1.05 0.87 0.76 0.70 0.61 0.57 0.54 0.50 0.51 0.52 0.55 0.63 0.74 0.81 0.82 0.82 0.76 0.68 0.63 0.58 0.57 0.60 0.61 0.55 0.50 0.47 0.45
0.86 0.85 0.91 0.91 0.88 0.94 0.94 0.91 0.93 0.92 0.95 0.97 0.95 0.95 0.99 0.98 1.00 0.97 0.85 0.72 0.63 0.60 0.57 0.55 0.51 0.50 0.53 0.61 0.66 0.72 0.79 0.79 0.77 0.72 0.61 0.57 0.53 0.55 0.60 0.58 0.53 0.51 0.46 0.40
0.95 0.93 0.95 0.99 1.03 1.02 0.97 0.97 1.03 1.09 1.16 1.23 1.27 1.16 1.11 1.07 1.01 0.88 0.76 0.67 0.59 0.56 0.56 0.54 0.51 0.48 0.53 0.62 0.68 0.72 0.73 0.73 0.67 0.61 0.60 0.57 0.54 0.56 0.60 0.57 0.52 0.47 0.41 0.38